Catania, Italy

3:29 PM CET on December 12, 2017 (GMT +0100)
Fontanarossa

Weather History for LICC - April, 2013

Change the Weather History Date:

Tuesday, April 23, 2013

  Actual Average Record
Temperature  
Mean Temperature 60 °F -  
Max Temperature 66 °F 74 °F 77 °F (2015)
Min Temperature 53 °F 52 °F 41 °F (2005)
Degree Days  
Heating Degree Days 6    
Growing Degree Days 10 (Base 50)    
Moisture  
Dew Point 51 °F    
Average Humidity 71    
Maximum Humidity 94    
Minimum Humidity 49    
Precipitation  
Precipitation 0.00 in 0.03 in - ()
Sea Level Pressure  
Sea Level Pressure 30.08 in    
Wind  
Wind Speed 11 mph ()    
Max Wind Speed 22 mph    
Max Gust Speed -    
Visibility 5.6 miles    
Events Rain    
Averages and records for this station are not official NWS values.
T = Trace of Precipitation, MM = Missing Value Source: Averaged Metar Reports

Daily Weather History Graph

Daily Weather History Graph

Search for Another Location

Airport or City:

Trip Planner

Search our weather history database for the weather conditions in past years. The results will help you decide how hot, cold, wet, or windy it might be!

Date:

Astronomy

Apr. 23, 2013 Rise Set
Actual Time 6:14 AM CEST 7:42 PM CEST
Civil Twilight 5:46 AM CEST 8:09 PM CEST
Nautical Twilight 5:13 AM CEST 8:43 PM CEST
Astronomical Twilight 4:39 AM CEST 9:17 PM CEST
Moon 5:20 PM CEST (4/23) 4:29 AM CEST (4/23)
Length of Visible Light 14h 23m
Length of Day
13h 28m
Waxing Gibbous, 92% of the Moon is Illuminated
Apr 23
Waxing Gibbous
Apr 25
Full
May 2
Last Quarter
May 10
New
May 18
First Quarter

Hourly Weather History & Observations

Time (CEST) Temp. Dew Point Humidity Pressure Visibility Wind Dir Wind Speed Gust Speed Precip Events Conditions
12:20 AM 55.4 °F 51.8 °F 88% 30.06 in 6.2 mi Calm Calm - N/A   Mostly Cloudy
12:50 AM 55.4 °F 51.8 °F 88% 30.04 in 6.2 mi North 5.8 mph - N/A Rain Light Rain
1:20 AM 55.4 °F 51.8 °F 88% 30.06 in 6.2 mi South 4.6 mph - N/A Rain Light Rain
1:50 AM 55.4 °F 51.8 °F 88% 30.04 in 6.2 mi SSW 4.6 mph - N/A Rain Light Rain
2:20 AM 53.6 °F 51.8 °F 94% 30.04 in 6.2 mi Variable 1.2 mph - N/A Rain Light Rain
2:50 AM 53.6 °F 51.8 °F 94% 30.01 in 4.3 mi WNW 3.5 mph - N/A   Mostly Cloudy
3:20 AM 53.6 °F 51.8 °F 94% 30.01 in 4.3 mi SE 3.5 mph - N/A   Mostly Cloudy
3:50 AM 53.6 °F 51.8 °F 94% 30.01 in 4.3 mi SW 3.5 mph - N/A   Mostly Cloudy
4:20 AM 53.6 °F 51.8 °F 94% 30.01 in 3.1 mi Variable 2.3 mph - N/A   Mostly Cloudy
4:50 AM 53.6 °F 51.8 °F 94% 30.01 in 3.1 mi SW 4.6 mph - N/A   Mostly Cloudy
6:50 AM 59.0 °F 51.8 °F 77% 30.04 in 6.2 mi ENE 9.2 mph - N/A   Mostly Cloudy
7:20 AM 59.0 °F 53.6 °F 82% 30.04 in 6.2 mi NE 12.7 mph - N/A   Mostly Cloudy
7:50 AM 60.8 °F 55.4 °F 82% 30.06 in 6.2 mi NE 12.7 mph - N/A   Mostly Cloudy
8:20 AM 60.8 °F 55.4 °F 82% 30.06 in 5.0 mi NE 15.0 mph - N/A   Mostly Cloudy
8:50 AM 60.8 °F 57.2 °F 88% 30.06 in 5.0 mi NE 15.0 mph - N/A   Scattered Clouds
9:20 AM 62.6 °F 57.2 °F 82% 30.06 in 5.0 mi NE 16.1 mph - N/A   Mostly Cloudy
9:50 AM 64.4 °F 57.2 °F 77% 30.06 in 5.0 mi NE 17.3 mph - N/A   Mostly Cloudy
10:20 AM 62.6 °F 55.4 °F 77% 30.09 in 5.0 mi NE 21.9 mph - N/A   Mostly Cloudy
10:50 AM 64.4 °F 57.2 °F 77% 30.09 in 5.0 mi ENE 20.7 mph - N/A   Scattered Clouds
11:20 AM 64.4 °F 55.4 °F 73% 30.09 in 5.0 mi NE 19.6 mph - N/A   Scattered Clouds
11:50 AM 64.4 °F 53.6 °F 68% 30.09 in 5.0 mi NE 18.4 mph - N/A   Scattered Clouds
12:20 PM 66.2 °F 51.8 °F 60% 30.09 in 6.2 mi ENE 21.9 mph - N/A   Scattered Clouds
12:50 PM 66.2 °F 48.2 °F 52% 30.09 in 6.2 mi NE 21.9 mph - N/A   Scattered Clouds
1:50 PM 66.2 °F 46.4 °F 49% 30.09 in 6.2 mi NE 21.9 mph - N/A   Scattered Clouds
2:20 PM 66.2 °F 48.2 °F 52% 30.09 in 6.2 mi NE 21.9 mph - N/A   Mostly Cloudy
2:50 PM 64.4 °F 48.2 °F 56% 30.09 in 6.2 mi NE 20.7 mph - N/A   Mostly Cloudy
3:20 PM 64.4 °F 48.2 °F 56% 30.09 in 6.2 mi NE 21.9 mph - N/A   Mostly Cloudy
3:50 PM 64.4 °F 48.2 °F 56% 30.09 in 6.2 mi NE 21.9 mph - N/A   Scattered Clouds
4:20 PM 66.2 °F 48.2 °F 52% 30.09 in 6.2 mi NE 21.9 mph - N/A   Partly Cloudy
4:50 PM 64.4 °F 48.2 °F 56% 30.09 in 6.2 mi NE 21.9 mph - N/A   Partly Cloudy
5:20 PM 64.4 °F 48.2 °F 56% 30.09 in 6.2 mi NE 18.4 mph - N/A   Partly Cloudy
5:50 PM 64.4 °F 48.2 °F 56% 30.12 in 6.2 mi NE 17.3 mph - N/A   Partly Cloudy
6:20 PM 62.6 °F 48.2 °F 59% 30.09 in 6.2 mi NE 19.6 mph - N/A   Partly Cloudy
6:50 PM 62.6 °F 46.4 °F 55% 30.09 in 6.2 mi NE 18.4 mph - N/A   Partly Cloudy
7:50 PM 60.8 °F 44.6 °F 55% 30.09 in 6.2 mi ENE 20.7 mph - N/A   Partly Cloudy
8:20 PM 62.6 °F 44.6 °F 52% 30.12 in 6.2 mi NE 20.7 mph - N/A   Partly Cloudy
8:50 PM 60.8 °F 46.4 °F 59% 30.15 in - NE 21.9 mph - N/A   Clear
9:20 PM 60.8 °F 48.2 °F 63% 30.15 in - NE 20.7 mph - N/A   Clear
9:50 PM 60.8 °F 48.2 °F 63% 30.15 in - NE 20.7 mph - N/A   Clear
10:20 PM 60.8 °F 48.2 °F 63% 30.15 in - NE 20.7 mph - N/A   Clear
10:50 PM 60.8 °F 48.2 °F 63% 30.15 in - NE 20.7 mph - N/A   Clear
11:20 PM 60.8 °F 48.2 °F 63% 30.18 in - NE 18.4 mph - N/A   Clear
11:50 PM 60.8 °F 48.2 °F 63% 30.18 in 6.2 mi NE 20.7 mph - N/A   Scattered Clouds